WJA1923 CYHZ-KBOS

Flight info

Callsign WJA1923
Flight time 1h 13m
Altitude 32000
Route CYHZ4/23 DCT SENVI DCT VIGMA DCT ALLEX DCT AJJAY OOSHN5
Aircraft B738/M-V/N

Departure

Time 2026-05-05 00:08
Airport Halifax / Stanfield International Airport (CYHZ)

Arrival

Time 2026-05-05 01:22
Airport Boston Logan International Airport (KBOS)
Time Latitude Longitude Altitude Speed Heading
2026-05-04 23:43 44.88679 -63.51377 456 ft 0 kts 258°
2026-05-04 23:58 44.88679 -63.51376 456 ft 0 kts 258°
2026-05-04 23:58 44.88679 -63.51375 455 ft 0 kts 258°
2026-05-04 23:59 44.88682 -63.51355 453 ft 3 kts 242°
2026-05-04 23:59 44.88695 -63.51338 454 ft 3 kts 178°
2026-05-04 23:59 44.88697 -63.51338 455 ft 0 kts 173°
2026-05-05 00:04 44.88678 -63.51328 456 ft 5 kts 151°
2026-05-05 00:04 44.88650 -63.51276 454 ft 7 kts 102°
2026-05-05 00:04 44.88670 -63.51201 454 ft 10 kts 65°
2026-05-05 00:05 44.88704 -63.51085 456 ft 15 kts 76°
2026-05-05 00:05 44.88735 -63.50928 456 ft 18 kts 51°
2026-05-05 00:05 44.88801 -63.50849 456 ft 14 kts 36°
2026-05-05 00:05 44.88895 -63.50755 455 ft 19 kts 35°
2026-05-05 00:06 44.89001 -63.50642 455 ft 17 kts 58°
2026-05-05 00:06 44.89004 -63.50596 455 ft 0 kts 111°
2026-05-05 00:07 44.88945 -63.50475 455 ft 19 kts 145°
2026-05-05 00:08 44.88832 -63.50498 457 ft 18 kts 212°
2026-05-05 00:08 44.88493 -63.50827 458 ft 103 kts 216°
2026-05-05 00:08 44.87697 -63.51598 579 ft 167 kts 219°
2026-05-05 00:08 44.86685 -63.52670 1226 ft 195 kts 221°
2026-05-05 00:09 44.85678 -63.54034 1906 ft 213 kts 241°
2026-05-05 00:09 44.85069 -63.55945 2194 ft 205 kts 250°
2026-05-05 00:09 44.84524 -63.57682 2467 ft 182 kts 249°
2026-05-05 00:09 44.84014 -63.59181 2741 ft 161 kts 249°
2026-05-05 00:10 44.83494 -63.60648 3101 ft 178 kts 248°
2026-05-05 00:10 44.82888 -63.62299 3393 ft 205 kts 246°
2026-05-05 00:10 44.82203 -63.64076 3703 ft 208 kts 245°
2026-05-05 00:10 44.81491 -63.65860 4027 ft 210 kts 245°
2026-05-05 00:11 44.80761 -63.67643 4336 ft 211 kts 245°
2026-05-05 00:11 44.80017 -63.69427 4675 ft 212 kts 244°
2026-05-05 00:11 44.79262 -63.71213 4976 ft 213 kts 244°
2026-05-05 00:11 44.78499 -63.72997 5300 ft 213 kts 244°
2026-05-05 00:12 44.77732 -63.74779 5607 ft 213 kts 244°
2026-05-05 00:12 44.76958 -63.76567 5903 ft 214 kts 244°
2026-05-05 00:12 44.76183 -63.78350 6214 ft 214 kts 244°
2026-05-05 00:12 44.75406 -63.80132 6508 ft 214 kts 244°
2026-05-05 00:13 44.74625 -63.81918 6820 ft 215 kts 244°
2026-05-05 00:13 44.73848 -63.83692 7109 ft 217 kts 244°
2026-05-05 00:13 44.73054 -63.85503 7431 ft 222 kts 244°
2026-05-05 00:13 44.72203 -63.87451 7775 ft 245 kts 243°
2026-05-05 00:14 44.71266 -63.89592 8090 ft 268 kts 243°
2026-05-05 00:14 44.70247 -63.91911 8408 ft 289 kts 243°
2026-05-05 00:14 44.69151 -63.94396 8748 ft 308 kts 242°
2026-05-05 00:14 44.67989 -63.97027 9076 ft 325 kts 242°
2026-05-05 00:15 44.66787 -63.99753 9402 ft 330 kts 243°
2026-05-05 00:15 44.65726 -64.02603 9708 ft 329 kts 249°
2026-05-05 00:15 44.64817 -64.05549 10011 ft 330 kts 250°
2026-05-05 00:15 44.63957 -64.08493 10291 ft 331 kts 251°
2026-05-05 00:16 44.63087 -64.11487 10592 ft 331 kts 251°
2026-05-05 00:16 44.62211 -64.14477 10892 ft 332 kts 251°
2026-05-05 00:16 44.61322 -64.17477 11186 ft 333 kts 251°
2026-05-05 00:16 44.60425 -64.20475 11501 ft 334 kts 250°
2026-05-05 00:17 44.59520 -64.23480 11788 ft 335 kts 250°
2026-05-05 00:17 44.58609 -64.26489 12088 ft 337 kts 250°
2026-05-05 00:17 44.57690 -64.29512 12385 ft 336 kts 250°
2026-05-05 00:17 44.56771 -64.32523 12704 ft 336 kts 251°
2026-05-05 00:18 44.55862 -64.35499 13025 ft 337 kts 250°
2026-05-05 00:18 44.54935 -64.38526 13362 ft 339 kts 250°
2026-05-05 00:18 44.54003 -64.41568 13683 ft 340 kts 250°
2026-05-05 00:18 44.53065 -64.44621 13976 ft 342 kts 250°
2026-05-05 00:19 44.52120 -64.47698 14271 ft 344 kts 250°
2026-05-05 00:19 44.51180 -64.50744 14551 ft 332 kts 250°
2026-05-05 00:19 44.50288 -64.53623 14820 ft 318 kts 251°
2026-05-05 00:19 44.49400 -64.56500 15148 ft 326 kts 251°
2026-05-05 00:20 44.48491 -64.59455 15463 ft 335 kts 251°
2026-05-05 00:20 44.47562 -64.62467 15751 ft 332 kts 251°
2026-05-05 00:20 44.46680 -64.65301 16017 ft 312 kts 251°
2026-05-05 00:20 44.45838 -64.67994 16292 ft 293 kts 251°
2026-05-05 00:21 44.45049 -64.70520 16575 ft 273 kts 251°
2026-05-05 00:21 44.44300 -64.72927 16886 ft 271 kts 252°
2026-05-05 00:21 44.43542 -64.75384 17233 ft 279 kts 252°
2026-05-05 00:21 44.42759 -64.77919 17587 ft 288 kts 251°
2026-05-05 00:22 44.41954 -64.80521 17934 ft 296 kts 251°
2026-05-05 00:22 44.41124 -64.83195 18262 ft 304 kts 251°
2026-05-05 00:22 44.40270 -64.85938 18565 ft 311 kts 251°
2026-05-05 00:22 44.39407 -64.88705 18858 ft 318 kts 251°
2026-05-05 00:23 44.38513 -64.91566 19179 ft 325 kts 252°
2026-05-05 00:23 44.37598 -64.94490 19473 ft 332 kts 252°
2026-05-05 00:23 44.36664 -64.97470 19788 ft 338 kts 252°
2026-05-05 00:23 44.35713 -65.00499 20052 ft 344 kts 251°
2026-05-05 00:24 44.34744 -65.03583 20370 ft 349 kts 251°
2026-05-05 00:24 44.33760 -65.06708 20685 ft 354 kts 251°
2026-05-05 00:24 44.32760 -65.09882 21012 ft 359 kts 251°
2026-05-05 00:24 44.31748 -65.13091 21323 ft 363 kts 251°
2026-05-05 00:25 44.30722 -65.16339 21636 ft 368 kts 251°
2026-05-05 00:25 44.29698 -65.19575 21958 ft 371 kts 251°
2026-05-05 00:25 44.28648 -65.22889 22291 ft 375 kts 252°
2026-05-05 00:25 44.27589 -65.26230 22627 ft 378 kts 252°
2026-05-05 00:26 44.26521 -65.29592 22954 ft 381 kts 252°
2026-05-05 00:26 44.25443 -65.32984 23302 ft 383 kts 252°
2026-05-05 00:26 44.24357 -65.36393 23599 ft 386 kts 252°
2026-05-05 00:26 44.23265 -65.39819 23859 ft 388 kts 252°
2026-05-05 00:27 44.22166 -65.43263 24146 ft 390 kts 252°
2026-05-05 00:27 44.21060 -65.46724 24435 ft 392 kts 252°
2026-05-05 00:27 44.19949 -65.50196 24733 ft 393 kts 253°
2026-05-05 00:27 44.18845 -65.53639 25020 ft 395 kts 253°
2026-05-05 00:28 44.17725 -65.57134 25319 ft 396 kts 253°
2026-05-05 00:28 44.16597 -65.60644 25620 ft 397 kts 253°
2026-05-05 00:28 44.15468 -65.64154 25914 ft 398 kts 253°
2026-05-05 00:28 44.14333 -65.67680 26231 ft 399 kts 253°
2026-05-05 00:29 44.13195 -65.71207 26538 ft 400 kts 253°
2026-05-05 00:29 44.12055 -65.74738 26851 ft 400 kts 253°
2026-05-05 00:29 44.10911 -65.78275 27167 ft 401 kts 253°
2026-05-05 00:29 44.09766 -65.81810 27502 ft 401 kts 254°
2026-05-05 00:30 44.08620 -65.85345 27813 ft 401 kts 254°
2026-05-05 00:30 44.07472 -65.88879 28133 ft 401 kts 254°
2026-05-05 00:30 44.06324 -65.92408 28473 ft 401 kts 254°
2026-05-05 00:30 44.05191 -65.95890 28795 ft 400 kts 254°
2026-05-05 00:31 44.04043 -65.99410 29139 ft 400 kts 255°
2026-05-05 00:31 44.02894 -66.02929 29480 ft 399 kts 255°
2026-05-05 00:31 44.01749 -66.06434 29804 ft 398 kts 255°
2026-05-05 00:31 44.00602 -66.09936 30118 ft 398 kts 255°
2026-05-05 00:32 43.99467 -66.13400 30386 ft 397 kts 254°
2026-05-05 00:32 43.98325 -66.16880 30682 ft 395 kts 253°
2026-05-05 00:32 43.97185 -66.20346 30975 ft 394 kts 253°
2026-05-05 00:32 43.96049 -66.23800 31280 ft 392 kts 253°
2026-05-05 00:33 43.94917 -66.27235 31581 ft 391 kts 253°
2026-05-05 00:33 43.93789 -66.30656 31888 ft 389 kts 252°
2026-05-05 00:33 43.92664 -66.34063 32113 ft 389 kts 252°
2026-05-05 00:34 43.90378 -66.40993 32095 ft 401 kts 252°
2026-05-05 00:34 43.88042 -66.48049 32065 ft 411 kts 252°
2026-05-05 00:35 43.85643 -66.55262 32093 ft 420 kts 252°
2026-05-05 00:35 43.83171 -66.62673 32090 ft 427 kts 252°
2026-05-05 00:36 43.80664 -66.70160 32100 ft 429 kts 252°
2026-05-05 00:36 43.78146 -66.77664 32096 ft 430 kts 251°
2026-05-05 00:37 43.75622 -66.85170 32071 ft 430 kts 252°
2026-05-05 00:37 43.73112 -66.92617 32090 ft 427 kts 252°
2026-05-05 00:37 43.71927 -66.96292 32077 ft 409 kts 257°
2026-05-05 00:38 43.71172 -67.00031 32116 ft 403 kts 264°
2026-05-05 00:38 43.70695 -67.07723 32111 ft 404 kts 276°
2026-05-05 00:39 43.70869 -67.15566 32107 ft 412 kts 276°
2026-05-05 00:39 43.71039 -67.23490 32098 ft 414 kts 276°
2026-05-05 00:40 43.71185 -67.31388 32097 ft 414 kts 276°
2026-05-05 00:40 43.71318 -67.39340 32098 ft 413 kts 276°
2026-05-05 00:41 43.71444 -67.47260 32098 ft 412 kts 276°
2026-05-05 00:41 43.71564 -67.55162 32095 ft 411 kts 276°
2026-05-05 00:42 43.71679 -67.63045 32095 ft 410 kts 276°
2026-05-05 00:42 43.71788 -67.70860 32093 ft 409 kts 276°
2026-05-05 00:43 43.71892 -67.78729 32096 ft 410 kts 276°
2026-05-05 00:43 43.71991 -67.86602 32092 ft 410 kts 276°
2026-05-05 00:44 43.72084 -67.94478 32090 ft 410 kts 276°
2026-05-05 00:44 43.72172 -68.02357 32092 ft 410 kts 276°
2026-05-05 00:45 43.72254 -68.10182 32088 ft 410 kts 276°
2026-05-05 00:45 43.72331 -68.18065 32090 ft 410 kts 276°
2026-05-05 00:46 43.72403 -68.25955 32081 ft 410 kts 276°
2026-05-05 00:46 43.72469 -68.33843 32082 ft 410 kts 276°
2026-05-05 00:47 43.72530 -68.41736 32089 ft 410 kts 276°
2026-05-05 00:47 43.72585 -68.49571 32088 ft 411 kts 276°
2026-05-05 00:48 43.72636 -68.57465 32074 ft 411 kts 276°
2026-05-05 00:48 43.72680 -68.65364 32079 ft 411 kts 276°
2026-05-05 00:49 43.72720 -68.73263 32073 ft 411 kts 276°
2026-05-05 00:49 43.72754 -68.81180 32083 ft 412 kts 276°
2026-05-05 00:50 43.72782 -68.89067 32078 ft 414 kts 276°
2026-05-05 00:50 43.72805 -68.97028 32074 ft 415 kts 276°
2026-05-05 00:51 43.72818 -69.04918 32051 ft 398 kts 276°
2026-05-05 00:51 43.72819 -69.08671 32025 ft 384 kts 276°
2026-05-05 00:51 43.72820 -69.12297 32042 ft 372 kts 276°
2026-05-05 00:52 43.72836 -69.19508 32083 ft 381 kts 276°
2026-05-05 00:52 43.72849 -69.26945 31706 ft 402 kts 275°
2026-05-05 00:52 43.72851 -69.30860 31400 ft 412 kts 275°
2026-05-05 00:53 43.72847 -69.34827 30994 ft 410 kts 275°
2026-05-05 00:53 43.72837 -69.38745 30606 ft 405 kts 275°
2026-05-05 00:53 43.72830 -69.42612 30218 ft 400 kts 275°
2026-05-05 00:53 43.72823 -69.46432 29826 ft 395 kts 275°
2026-05-05 00:54 43.72816 -69.50205 29389 ft 390 kts 274°
2026-05-05 00:54 43.72473 -69.53872 28918 ft 395 kts 257°
2026-05-05 00:54 43.71293 -69.57326 28506 ft 402 kts 242°
2026-05-05 00:54 43.69484 -69.60303 28095 ft 407 kts 229°
2026-05-05 00:55 43.67201 -69.62658 27678 ft 416 kts 213°
2026-05-05 00:55 43.64507 -69.64171 27306 ft 419 kts 205°
2026-05-05 00:55 43.61747 -69.65420 26908 ft 416 kts 204°
2026-05-05 00:55 43.58987 -69.66607 26452 ft 415 kts 204°
2026-05-05 00:56 43.56239 -69.67784 25994 ft 413 kts 204°
2026-05-05 00:56 43.53506 -69.68969 25526 ft 410 kts 203°
2026-05-05 00:56 43.50794 -69.70161 25095 ft 408 kts 204°
2026-05-05 00:56 43.48133 -69.71344 24659 ft 406 kts 204°
2026-05-05 00:57 43.45450 -69.72544 24229 ft 404 kts 204°
2026-05-05 00:57 43.42787 -69.73739 23806 ft 402 kts 204°
2026-05-05 00:57 43.40133 -69.74931 23379 ft 400 kts 203°
2026-05-05 00:57 43.37496 -69.76114 22883 ft 398 kts 203°
2026-05-05 00:58 43.34871 -69.77290 22397 ft 394 kts 203°
2026-05-05 00:58 43.32297 -69.78440 21950 ft 384 kts 203°
2026-05-05 00:58 43.29782 -69.79562 21452 ft 376 kts 203°
2026-05-05 00:58 43.27353 -69.80645 20978 ft 368 kts 203°
2026-05-05 00:59 43.24945 -69.81722 20515 ft 361 kts 204°
2026-05-05 00:59 43.22581 -69.82777 20061 ft 354 kts 204°
2026-05-05 00:59 43.20261 -69.83810 19605 ft 348 kts 204°
2026-05-05 00:59 43.17978 -69.84827 19150 ft 342 kts 204°
2026-05-05 01:00 43.15734 -69.85826 18718 ft 336 kts 204°
2026-05-05 01:00 43.13522 -69.86811 18289 ft 332 kts 204°
2026-05-05 01:00 43.11347 -69.87779 17819 ft 327 kts 204°
2026-05-05 01:00 43.09197 -69.88735 17337 ft 323 kts 204°
2026-05-05 01:01 43.07075 -69.89678 16857 ft 319 kts 204°
2026-05-05 01:01 43.05009 -69.90594 16398 ft 315 kts 203°
2026-05-05 01:01 43.02936 -69.91511 15945 ft 311 kts 204°
2026-05-05 01:01 43.00888 -69.92418 15492 ft 308 kts 204°
2026-05-05 01:02 42.98853 -69.93317 15037 ft 306 kts 204°
2026-05-05 01:02 42.96838 -69.94208 14607 ft 303 kts 204°
2026-05-05 01:02 42.94836 -69.95092 14174 ft 301 kts 203°
2026-05-05 01:02 42.92852 -69.95969 13744 ft 299 kts 204°
2026-05-05 01:03 42.90883 -69.96838 13268 ft 296 kts 204°
2026-05-05 01:03 42.88926 -69.97701 12800 ft 294 kts 204°
2026-05-05 01:03 42.86984 -69.98558 12331 ft 293 kts 203°
2026-05-05 01:03 42.85050 -69.99411 11871 ft 292 kts 204°
2026-05-05 01:04 42.83149 -70.00249 11406 ft 290 kts 203°
2026-05-05 01:04 42.79319 -70.01933 10522 ft 288 kts 203°
2026-05-05 01:04 42.77410 -70.02772 10079 ft 288 kts 203°
2026-05-05 01:05 42.75504 -70.03619 9642 ft 287 kts 205°
2026-05-05 01:05 42.73631 -70.04535 9181 ft 285 kts 207°
2026-05-05 01:05 42.71794 -70.05456 9057 ft 278 kts 207°
2026-05-05 01:05 42.69973 -70.06364 9050 ft 279 kts 206°
2026-05-05 01:06 42.68144 -70.07272 9041 ft 282 kts 206°
2026-05-05 01:06 42.66332 -70.08202 9023 ft 281 kts 211°
2026-05-05 01:06 42.64861 -70.09799 9044 ft 265 kts 237°
2026-05-05 01:06 42.63925 -70.11898 9025 ft 254 kts 248°
2026-05-05 01:07 42.63202 -70.14051 9026 ft 251 kts 249°
2026-05-05 01:07 42.62490 -70.16217 9036 ft 251 kts 249°
2026-05-05 01:07 42.61760 -70.18392 9044 ft 254 kts 249°
2026-05-05 01:07 42.61019 -70.20572 9015 ft 254 kts 249°
2026-05-05 01:08 42.60296 -70.22745 9010 ft 250 kts 253°
2026-05-05 01:08 42.60001 -70.25061 8743 ft 250 kts 269°
2026-05-05 01:08 42.59911 -70.27408 8496 ft 248 kts 269°
2026-05-05 01:08 42.59819 -70.29737 8231 ft 246 kts 269°
2026-05-05 01:09 42.59725 -70.32018 7981 ft 245 kts 268°
2026-05-05 01:09 42.59626 -70.34316 7715 ft 243 kts 268°
2026-05-05 01:09 42.59525 -70.36599 7466 ft 242 kts 268°
2026-05-05 01:09 42.59422 -70.38871 7220 ft 240 kts 268°
2026-05-05 01:10 42.59320 -70.41117 7007 ft 237 kts 268°
2026-05-05 01:10 42.59216 -70.43361 6702 ft 239 kts 268°
2026-05-05 01:10 42.59111 -70.45614 6403 ft 240 kts 267°
2026-05-05 01:10 42.59006 -70.47864 6095 ft 238 kts 267°
2026-05-05 01:11 42.58902 -70.50056 5791 ft 234 kts 267°
2026-05-05 01:11 42.58797 -70.52252 5428 ft 233 kts 266°
2026-05-05 01:11 42.58693 -70.54431 5010 ft 230 kts 266°
2026-05-05 01:11 42.58577 -70.56580 4592 ft 227 kts 262°
2026-05-05 01:12 42.58205 -70.58647 4164 ft 225 kts 253°
2026-05-05 01:12 42.57738 -70.60661 3731 ft 223 kts 252°
2026-05-05 01:12 42.57433 -70.61988 3441 ft 222 kts 252°
2026-05-05 01:12 42.57007 -70.63992 3068 ft 220 kts 259°
2026-05-05 01:13 42.57056 -70.66041 3036 ft 220 kts 274°
2026-05-05 01:13 42.57301 -70.68128 3024 ft 227 kts 275°
2026-05-05 01:13 42.57565 -70.70206 3002 ft 218 kts 275°
2026-05-05 01:13 42.57823 -70.72131 2998 ft 197 kts 276°
2026-05-05 01:14 42.58071 -70.73859 2989 ft 176 kts 276°
2026-05-05 01:14 42.58310 -70.75399 2966 ft 160 kts 276°
2026-05-05 01:14 42.58544 -70.76866 3020 ft 164 kts 276°
2026-05-05 01:14 42.58779 -70.78390 3029 ft 167 kts 276°
2026-05-05 01:15 42.59015 -70.79921 3014 ft 163 kts 276°
2026-05-05 01:15 42.59200 -70.81417 3000 ft 154 kts 262°
2026-05-05 01:15 42.58801 -70.82608 3023 ft 138 kts 228°
2026-05-05 01:15 42.58037 -70.83621 3066 ft 164 kts 229°
2026-05-05 01:16 42.57301 -70.84786 3014 ft 161 kts 234°
2026-05-05 01:16 42.56676 -70.86014 3015 ft 157 kts 239°
2026-05-05 01:16 42.56148 -70.87314 3013 ft 158 kts 244°
2026-05-05 01:16 42.55719 -70.88658 3052 ft 153 kts 248°
2026-05-05 01:17 42.55372 -70.90036 2924 ft 159 kts 251°
2026-05-05 01:17 42.55032 -70.91436 2781 ft 153 kts 238°
2026-05-05 01:17 42.54137 -70.92139 2659 ft 162 kts 188°
2026-05-05 01:17 42.53041 -70.92367 2706 ft 158 kts 210°
2026-05-05 01:18 42.52056 -70.93028 2747 ft 159 kts 210°
2026-05-05 01:18 42.51021 -70.93584 2581 ft 157 kts 204°
2026-05-05 01:18 42.49997 -70.94047 2438 ft 155 kts 204°
2026-05-05 01:18 42.49020 -70.94496 2277 ft 146 kts 205°
2026-05-05 01:19 42.48041 -70.94956 2151 ft 153 kts 204°
2026-05-05 01:19 42.47028 -70.95433 2017 ft 154 kts 205°
2026-05-05 01:19 42.46028 -70.95906 1862 ft 150 kts 204°
2026-05-05 01:19 42.45006 -70.96383 1867 ft 153 kts 204°
2026-05-05 01:20 42.44069 -70.96914 1564 ft 138 kts 207°
2026-05-05 01:20 42.43203 -70.97349 1298 ft 130 kts 201°
2026-05-05 01:20 42.42359 -70.97651 1157 ft 126 kts 204°
2026-05-05 01:20 42.41525 -70.98113 1007 ft 134 kts 204°
2026-05-05 01:21 42.40603 -70.98511 797 ft 143 kts 201°
2026-05-05 01:21 42.39693 -70.99002 654 ft 142 kts 202°
2026-05-05 01:21 42.38735 -70.99435 371 ft 143 kts 200°
2026-05-05 01:21 42.37816 -70.99863 140 ft 141 kts 202°
2026-05-05 01:22 42.36939 -71.00292 28 ft 125 kts 202°
2026-05-05 01:22 42.36383 -71.00563 27 ft 46 kts 200°
2026-05-05 01:22 42.36154 -71.00733 23 ft 31 kts 250°
2026-05-05 01:22 42.36194 -71.00946 27 ft 1 kts 296°
2026-05-05 01:23 42.36198 -71.00955 25 ft 2 kts 295°
2026-05-05 01:23 42.36201 -71.00964 29 ft 0 kts 295°
2026-05-05 01:23 42.36204 -71.00973 28 ft 0 kts 295°
2026-05-05 01:23 42.36203 -71.00970 29 ft 1 kts 295°
2026-05-05 01:24 42.36202 -71.00967 29 ft 0 kts 294°